Latest Weather Observations for Melbourne Airport

IDV60801

Issued at 7:35 pm EDT Thursday 23 October 2014 (issued every 30 minutes, with the page automatically refreshed every 10 minutes)

About weather observations | Map of weather stations | Latest weather observations for VIC | Other Formats
Station Details ID: 086282 Name: MELBOURNE AIRPORT Lat: -37.67 Lon: 144.83 Height: 113.4 m
Data from the previous 72 hours. | See also: Recent months at Melbourne Airport
Date/Time
EDT
Temp
°C
App
Temp
°C
Dew
Point
Rel
Hum
%
Delta-T
°C
Wind Press
QNH
hPa
Press
MSL
hPa
Rain
since 9 am
mm
Dir
 
Spd
km/h
Gust
km/h
Spd
kts
Gust
kts
23/07:30pm 17.8 16.6 14.0 78 2.2 WSW 13 17 7 9 1015.3 1015.3 0.0
23/07:00pm 18.8 16.8 13.9 73 2.8 SW 17 19 9 10 1015.4 1015.4 0.0
23/06:30pm 19.0 16.6 13.8 72 3.0 SSW 19 22 10 12 1015.4 1015.4 0.0
23/06:00pm 19.1 16.5 13.7 71 3.1 SSW 20 30 11 16 1015.7 1015.7 0.0
23/05:30pm 18.9 16.4 13.5 71 3.1 SSW 19 24 10 13 1015.8 1015.8 0.0
23/05:00pm 19.1 16.4 12.9 67 3.5 S 19 28 10 15 1016.0 1016.0 0.0
23/04:30pm 19.4 17.1 12.9 66 3.7 SSW 17 35 9 19 1016.3 1016.3 0.0
23/04:00pm 19.1 17.5 12.7 66 3.6 SSW 13 19 7 10 1016.5 1016.5 0.0
23/03:30pm 18.5 17.2 12.4 67 3.4 S 11 19 6 10 1017.0 1017.0 0.0
23/03:00pm 18.0 16.3 12.4 70 3.1 SSE 13 17 7 9 1017.3 1017.3 0.0
23/02:30pm 17.1 14.9 12.2 73 2.7 S 15 20 8 11 1017.8 1017.8 0.0
23/02:00pm 16.8 14.6 12.1 74 2.6 S 15 22 8 12 1018.4 1018.3 0.0
23/01:30pm 16.5 14.4 12.3 76 2.3 S 15 19 8 10 1018.6 1018.5 0.0
23/01:00pm 16.1 14.4 12.3 78 2.1 S 13 17 7 9 1019.0 1018.9 0.0
23/12:30pm 15.4 13.3 12.3 82 1.7 S 15 22 8 12 1019.3 1019.2 0.0
23/12:00pm 15.5 13.4 12.4 82 1.7 S 15 20 8 11 1019.5 1019.4 0.0
23/11:30am 15.1 13.4 12.4 84 1.5 S 13 19 7 10 1019.9 1019.8 0.0
23/11:00am 15.1 13.4 12.4 84 1.5 S 13 17 7 9 1020.2 1020.1 0.0
23/10:30am 15.3 13.8 12.0 81 1.8 SSW 11 17 6 9 1020.5 1020.4 0.0
23/10:00am 14.9 13.0 11.8 82 1.7 SSW 13 17 7 9 1020.4 1020.3 0.0
23/09:30am 14.6 12.3 11.8 83 1.5 S 15 19 8 10 1020.6 1020.5 0.0
23/09:00am 14.5 12.8 12.5 88 1.1 S 13 17 7 9 1020.7 1020.7 0.0
23/08:30am 14.1 11.7 12.6 91 0.8 S 17 24 9 13 1020.7 1020.7 0.0
23/08:00am 14.4 12.2 12.2 87 1.2 S 15 17 8 9 1020.4 1020.3 0.0
23/07:30am 14.3 12.2 12.3 88 1.1 SSW 15 19 8 10 1020.2 1020.1 0.0
23/07:00am 14.3 13.3 12.3 88 1.1 SSW 9 13 5 7 1019.9 1019.8 0.0
23/06:30am 14.2 12.5 12.4 89 1.0 S 13 15 7 8 1019.7 1019.6 0.0
23/06:00am 13.8 13.1 13.3 97 0.3 SW 9 9 5 5 1019.5 1019.4 0.0
23/05:30am 13.8 12.7 13.1 96 0.4 WSW 11 13 6 7 1019.1 1019.0 0.0
23/05:00am 13.7 12.2 13.0 96 0.4 SW 13 15 7 8 1018.8 1018.7 0.0
23/04:30am 13.9 11.9 12.8 93 0.6 SW 15 19 8 10 1018.8 1018.7 0.0
23/04:00am 14.3 12.6 12.5 89 1.0 SW 13 17 7 9 1018.7 1018.6 0.0
23/03:30am 14.3 12.3 12.7 90 0.9 SW 15 19 8 10 1018.9 1018.8 0.0
23/03:00am 14.5 12.9 12.7 89 1.0 SSW 13 17 7 9 1019.2 1019.1 0.0
23/02:30am 14.7 13.1 12.9 89 1.0 S 13 17 7 9 1019.5 1019.4 0.0
23/02:00am 15.0 13.1 13.0 88 1.1 SSW 15 22 8 12 1019.4 1019.3 0.0
23/01:30am 14.8 14.4 13.0 89 1.0 S 7 9 4 5 1019.5 1019.4 0.0
23/01:00am 14.7 13.9 12.9 89 1.0 S 9 11 5 6 1019.5 1019.4 0.0
23/12:49am 14.7 13.5 12.9 89 1.0 S 11 13 6 7 1019.4 1019.3 0.0
23/12:30am 14.9 13.0 12.9 88 1.1 SSE 15 19 8 10 1019.3 1019.2 0.0
23/12:19am 14.9 12.6 13.1 89 1.0 SSE 17 19 9 10 1019.3 1019.2 0.0
23/12:00am 15.0 13.0 12.8 87 1.2 S 15 20 8 11 1019.1 1019.0 0.0
 
Date/Time
EDT
Temp
°C
App
Temp
°C
Dew
Point
Rel
Hum
%
Delta-T
°C
Wind Press
QNH
hPa
Press
MSL
hPa
Rain
since 9 am
mm
Dir
 
Spd
km/h
Gust
km/h
Spd
kts
Gust
kts
22/11:30pm 15.0 14.5 12.8 87 1.2 S 7 11 4 6 1018.8 1018.7 0.0
22/11:00pm 15.7 12.4 12.8 83 1.6 S 22 30 12 16 1018.7 1018.6 0.0
22/10:30pm 17.3 13.7 12.0 71 2.9 S 22 28 12 15 1018.5 1018.4 0.0
22/10:00pm 18.9 16.9 11.4 61 4.1 SW 13 17 7 9 1018.8 1018.7 0.0
22/09:30pm 20.3 17.5 11.2 56 5.0 WSW 17 20 9 11 1018.4 1018.3 0.0
22/09:00pm 22.2 18.7 11.0 49 6.2 WSW 20 32 11 17 1018.2 1018.1 0.0
22/08:30pm 23.5 20.1 11.2 46 6.9 WSW 20 26 11 14 1016.7 1016.7 0.0
22/08:00pm 26.4 23.3 10.4 36 9.0 N 17 19 9 10 1015.6 1015.6 0.0
22/07:30pm 26.1 23.7 11.4 39 8.4 N 15 19 8 10 1015.2 1015.2 0.0
22/07:00pm 27.8 24.1 10.3 33 9.9 N 20 28 11 15 1014.7 1014.7 0.0
22/06:30pm 28.9 24.4 10.2 31 10.6 N 24 32 13 17 1014.5 1014.5 0.0
22/06:00pm 28.6 23.3 10.0 31 10.5 N 28 37 15 20 1014.7 1014.7 0.0
22/05:30pm 30.3 24.0 9.6 27 11.7 N 33 43 18 23 1014.7 1014.7 0.0
22/05:00pm 30.6 23.4 9.3 26 12.0 N 37 44 20 24 1014.9 1014.9 0.0
22/04:30pm 29.5 22.9 10.1 30 11.0 N 35 43 19 23 1015.0 1015.0 0.0
22/04:00pm 29.0 22.4 10.1 30 10.7 N 35 43 19 23 1015.2 1015.2 0.0
22/03:30pm 28.8 22.1 9.5 30 10.8 N 35 44 19 24 1015.5 1015.5 0.0
22/03:00pm 30.6 24.3 9.8 27 11.8 N 33 41 18 22 1015.7 1015.7 0.0
22/02:30pm 30.3 23.8 10.4 29 11.4 N 35 44 19 24 1016.1 1016.1 0.0
22/02:00pm 29.9 23.4 10.2 29 11.2 N 35 43 19 23 1016.5 1016.5 0.0
22/01:30pm 28.7 21.9 10.6 32 10.3 N 37 48 20 26 1016.8 1016.8 0.0
22/01:00pm 28.2 21.3 10.3 32 10.1 N 37 50 20 27 1017.2 1017.2 0.0
22/12:30pm 27.4 20.3 10.9 35 9.4 N 39 52 21 28 1017.6 1017.6 0.0
22/12:01pm 26.0 18.4 10.5 37 8.7 N 41 59 22 32 1017.9 1017.9 0.0
22/12:00pm 25.9 18.6 10.3 37 8.7 N 39 50 21 27 1017.9 1017.9 0.0
22/11:30am 25.3 17.3 10.4 39 8.3 N 43 50 23 27 1018.5 1018.4 0.0
22/11:00am 24.4 15.7 10.1 40 7.9 N 46 57 25 31 1019.1 1019.0 0.0
22/10:30am 22.7 13.6 9.9 44 7.0 N 48 63 26 34 1019.1 1019.0 0.0
22/10:01am 21.6 12.0 9.5 46 6.5 N 50 69 27 37 1019.1 1019.0 0.0
22/10:00am 21.7 11.7 9.4 45 6.6 N 52 69 28 37 1019.2 1019.1 0.0
22/09:30am 20.7 9.7 9.3 48 6.1 N 57 72 31 39 1019.3 1019.2 0.0
22/09:11am 20.2 10.1 9.1 49 5.9 N 52 70 28 38 1019.4 1019.3 0.0
22/09:00am 20.3 9.4 9.0 48 6.0 N 56 69 30 37 1019.5 1019.4 0.0
22/08:32am 18.9 8.8 8.8 52 5.3 N 52 72 28 39 1019.4 1019.3 0.0
22/08:30am 19.0 8.9 8.9 52 5.3 N 52 69 28 37 1019.4 1019.3 0.0
22/08:00am 19.4 8.9 8.9 50 5.5 N 54 67 29 36 1019.5 1019.4 0.0
22/07:30am 18.4 8.2 8.6 53 5.1 N 52 67 28 36 1019.5 1019.4 0.0
22/07:00am 18.0 9.3 8.5 53 4.9 N 44 57 24 31 1019.6 1019.5 0.0
22/06:30am 17.8 10.1 8.5 54 4.8 N 39 50 21 27 1019.8 1019.7 0.0
22/06:00am 17.8 10.9 8.7 55 4.7 N 35 44 19 24 1019.8 1019.7 0.0
22/05:30am 17.6 11.2 8.7 56 4.6 N 32 46 17 25 1019.7 1019.6 0.0
22/05:00am 18.2 11.8 8.5 53 5.0 N 32 39 17 21 1019.5 1019.4 0.0
22/04:30am 18.0 11.7 9.0 55 4.7 N 32 39 17 21 1019.6 1019.5 0.0
22/04:00am 18.0 12.1 9.2 56 4.6 N 30 37 16 20 1019.7 1019.6 0.0
22/03:30am 18.0 12.5 9.2 56 4.6 N 28 33 15 18 1019.9 1019.8 0.0
22/03:00am 17.5 12.4 9.3 58 4.3 N 26 32 14 17 1020.2 1020.1 0.0
22/02:30am 17.4 13.0 8.9 57 4.4 N 22 26 12 14 1020.5 1020.4 0.0
22/02:00am 17.1 13.7 9.0 59 4.2 N 17 20 9 11 1020.8 1020.8 0.0
22/01:30am 16.2 12.8 9.3 63 3.6 N 17 19 9 10 1021.1 1021.1 0.0
22/01:00am 14.7 11.8 9.7 72 2.6 N 15 24 8 13 1021.5 1021.5 0.0
22/12:30am 16.7 13.3 9.2 61 3.9 N 17 26 9 14 1021.9 1021.9 0.0
22/12:00am 16.9 14.0 9.7 62 3.8 N 15 20 8 11 1022.3 1022.3 0.0
 
Date/Time
EDT
Temp
°C
App
Temp
°C
Dew
Point
Rel
Hum
%
Delta-T
°C
Wind Press
QNH
hPa
Press
MSL
hPa
Rain
since 9 am
mm
Dir
 
Spd
km/h
Gust
km/h
Spd
kts
Gust
kts
21/11:30pm 17.4 13.7 9.6 60 4.1 N 19 19 10 10 1022.7 1022.7 0.0
21/11:00pm 15.7 12.5 10.0 69 3.0 N 17 19 9 10 1022.8 1022.8 0.0
21/10:30pm 17.0 15.3 10.0 63 3.7 WNW 9 11 5 6 1023.0 1023.0 0.0
21/10:00pm 20.1 16.7 9.1 49 5.8 N 17 20 9 11 1023.0 1023.0 0.0
21/09:30pm 20.7 17.3 9.2 47 6.1 NNW 17 24 9 13 1022.9 1022.9 0.0
21/09:00pm 19.9 16.7 9.8 52 5.4 N 17 28 9 15 1022.5 1022.5 0.0
21/08:30pm 20.5 17.5 9.4 49 5.9 N 15 17 8 9 1022.5 1022.5 0.0
21/08:00pm 21.4 18.5 9.5 46 6.4 N 15 28 8 15 1022.4 1022.4 0.0
21/07:30pm 24.7 21.1 8.5 35 8.7 NNE 17 24 9 13 1022.3 1022.3 0.0
21/07:00pm 24.7 21.0 8.0 34 8.9 N 17 30 9 16 1022.2 1022.2 0.0
21/06:30pm 25.5 21.9 8.4 33 9.2 NNE 17 24 9 13 1022.2 1022.2 0.0
21/06:00pm 26.1 22.0 8.0 31 9.7 NNE 19 22 10 12 1022.3 1022.3 0.0
21/05:30pm 26.8 22.6 8.1 30 10.1 NNE 20 28 11 15 1022.3 1022.3 0.0
21/05:00pm 26.8 23.0 8.9 32 9.8 NNE 19 28 10 15 1022.4 1022.4 0.0
21/04:30pm 26.8 23.0 7.5 29 10.3 N 17 22 9 12 1022.7 1022.7 0.0
21/04:00pm 27.0 21.9 7.8 29 10.3 N 24 28 13 15 1022.8 1022.8 0.0
21/03:30pm 26.4 21.3 7.7 30 10.0 N 24 35 13 19 1023.3 1023.3 0.0
21/03:00pm 26.4 21.8 9.5 34 9.3 NNE 24 37 13 20 1023.7 1023.7 0.0
21/02:30pm 26.2 21.1 9.2 34 9.4 N 26 33 14 18 1024.1 1024.1 0.0
21/02:00pm 25.7 20.4 9.7 36 8.8 N 28 37 15 20 1024.7 1024.7 0.0
21/01:30pm 24.7 19.2 9.3 37 8.4 NNE 28 41 15 22 1024.9 1024.9 0.0
21/01:00pm 24.2 17.9 9.8 40 7.9 N 33 43 18 23 1025.4 1025.4 0.0
21/12:30pm 23.2 16.9 9.1 40 7.6 N 32 39 17 21 1025.7 1025.7 0.0
21/12:00pm 22.9 16.5 8.6 40 7.6 NNE 32 41 17 22 1025.9 1025.9 0.0
21/11:30am 22.0 14.2 8.3 41 7.2 N 39 52 21 28 1026.2 1026.2 0.0
21/11:00am 21.5 14.0 8.1 42 7.0 NNE 37 50 20 27 1026.5 1026.5 0.0
21/10:46am 20.9 14.2 8.0 43 6.7 N 33 54 18 29 1026.6 1026.6 0.0
21/10:30am 20.2 13.5 8.3 46 6.2 NNE 33 44 18 24 1026.8 1026.8 0.0
21/10:00am 19.3 12.8 8.8 50 5.5 N 33 43 18 23 1027.0 1026.9 0.0
21/09:30am 18.3 12.0 8.9 54 4.9 NNE 32 39 17 21 1027.1 1027.0 0.0
21/09:22am 17.7 12.1 8.8 56 4.6 NNE 28 37 15 20 1027.1 1027.0 0.0
21/09:00am 15.3 12.4 8.1 62 3.6 ENE 13 17 7 9 1027.2 1027.1 0.0
21/08:30am 12.7 10.1 7.6 71 2.5 E 11 17 6 9 1027.3 1027.2 0.0
21/08:00am 10.2 7.9 7.3 82 1.4 NE 9 11 5 6 1027.0 1026.9 0.0
21/07:30am 7.5 4.8 5.7 88 0.8 NNE 9 11 5 6 1026.7 1026.7 0.0
21/07:00am 5.5 1.7 4.1 91 0.6 N 13 13 7 7 1026.5 1026.5 0.0
21/06:30am 5.5 1.8 4.3 92 0.5 N 13 13 7 7 1026.3 1026.3 0.0
21/06:00am 5.9 1.8 4.5 91 0.6 N 15 15 8 8 1026.2 1026.2 0.0
21/05:30am 6.1 1.8 5.2 94 0.4 N 17 19 9 10 1026.0 1026.0 0.0
21/05:00am 6.3 2.7 5.2 93 0.5 N 13 17 7 9 1026.1 1026.1 0.0
21/04:30am 6.4 3.2 5.3 93 0.5 N 11 13 6 7 1026.1 1026.1 0.0
21/04:00am 6.3 3.2 5.4 94 0.4 N 11 15 6 8 1026.3 1026.3 0.0
21/03:30am 7.1 4.1 5.8 91 0.6 WNW 11 13 6 7 1026.2 1026.2 0.0
21/03:00am 7.2 3.8 5.9 91 0.6 WNW 13 17 7 9 1026.4 1026.4 0.0
21/02:30am 7.0 3.2 5.9 93 0.5 NW 15 19 8 10 1026.5 1026.5 0.0
21/02:00am 7.5 4.5 6.2 91 0.6 WNW 11 15 6 8 1026.7 1026.7 0.0
21/01:30am 7.8 4.1 6.3 90 0.7 WNW 15 19 8 10 1027.1 1027.0 0.0
21/01:00am 7.8 4.1 6.3 90 0.7 WNW 15 17 8 9 1027.3 1027.2 0.0
21/12:30am 7.9 4.2 6.4 90 0.7 NW 15 17 8 9 1027.4 1027.3 0.0
21/12:00am 8.4 5.1 6.4 87 0.9 NW 13 15 7 8 1027.5 1027.4 0.0
 
Date/Time
EDT
Temp
°C
App
Temp
°C
Dew
Point
Rel
Hum
%
Delta-T
°C
Wind Press
QNH
hPa
Press
MSL
hPa
Rain
since 9 am
mm
Dir
 
Spd
km/h
Gust
km/h
Spd
kts
Gust
kts
20/11:30pm 8.6 5.6 6.0 84 1.2 WNW 11 13 6 7 1027.6 1027.5 0.0
20/11:00pm 9.0 5.7 6.2 82 1.3 W 13 13 7 7 1027.7 1027.6 0.0
20/10:30pm 9.7 7.5 6.2 79 1.6 WSW 7 9 4 5 1027.7 1027.6 0.0
20/10:00pm 10.8 8.0 6.8 76 1.9 SSW 11 13 6 7 1027.8 1027.7 0.0
20/09:30pm 11.8 8.6 7.0 72 2.3 SSW 13 17 7 9 1027.8 1027.7 0.0
20/09:00pm 12.8 9.6 7.0 68 2.8 S 13 17 7 9 1027.6 1027.5 0.0
20/08:30pm 14.0 9.7 6.8 62 3.5 S 19 26 10 14 1027.4 1027.3 0.0
20/08:00pm 15.0 10.0 6.3 56 4.2 S 22 30 12 16 1026.8 1026.8 0.0

Other Formats:

Comma delimited format used in spreadsheet applications
http://www.bom.gov.au/fwo/IDV60801/IDV60801.94866.axf

JavaScript Object Notation format (JSON) in row-major order
http://www.bom.gov.au/fwo/IDV60801/IDV60801.94866.json